2021-002K (47318 NORAD) Tracking and Keplerian Element Data

This shows tracking and keplerian element data for the satellite.

Feedback or suggestion? Click here.




ElementValue
Catalog47318
Name2021-002K
Epoch Orbit673
Epoch Day62.44716647
Epoch Year2021
RAAN328.1275
Inclination60.6871
Eccentricity0.002257
Argument of Perigee334.9409
Mean Anonmoly25.058
Mean Motion15.20501215
Decay Rate1.277E-05
L11 47318U 21002K 21062.44716647 .00001277 00000-0 69883-4 0 9993
L22 47318 60.6871 328.1275 0022570 334.9409 25.0580 15.20501215 6737

Live tracking and technical data element details for 2021-002K (NORAD 47318). 2021-002K can be tracked NOW for your location showing map with azimuth and elevation plus other details from your city location.

Track the satellite on the map from your city or location and see movement details for azimuth, elevation, latitude, longitude, range, height, and movement on the map or in text.







IsCatalogInMostPopularTable: catalog: 47318, numindb: 12
Update: records affected: 1



GetName: 47318 2021-002K

Hit Count: updated at: Fri, 05 Mar 2021 06:52:54 GMT